Weather History for KDUX - November, 2011

Change the Weather History Date:

Saturday, November 19, 2011

  Actual Average (KBGD) Record (KBGD)
Temperature  
Mean Temperature 56 °F 47 °F  
Max Temperature 71 °F 60 °F 83 °F (2007)
Min Temperature 42 °F 35 °F 19 °F (1969)
Degree Days  
Heating Degree Days 8 18  
Month to date heating degree days 271  
Since 1 July heating degree days 492  
Cooling Degree Days 0 0  
Month to date cooling degree days 0  
Year to date cooling degree days 1835  
Growing Degree Days 6 (Base 50)    
Moisture  
Dew Point 24 °F    
Average Humidity 31    
Maximum Humidity 61    
Minimum Humidity 14    
Precipitation  
Precipitation 0.00 in 0.03 in 0.95 in (1975)
Month to date precipitation 0.60  
Year to date precipitation 20.71  
Snow  
Snow 0.00 in - - ()
Month to date snowfall  
Since 1 July snowfall  
Since 1 September snowfall  
Snow Depth -    
Sea Level Pressure  
Sea Level Pressure 29.73 in    
Wind  
Wind Speed 21 mph (SW)    
Max Wind Speed 32 mph    
Max Gust Speed 41 mph    
Visibility 10 miles    
Events      
T = Trace of Precipitation, MM = Missing Value Source: NWS Daily Summary

Daily Weather History Graph

Daily Weather History Graph

Search for Another Location

Airport or City:

Trip Planner

Search our weather history database for the weather conditions in past years. The results will help you decide how hot, cold, wet, or windy it might be!

Date:

Astronomy

Nov. 19, 2011 Rise Set
Actual Time 7:28 AM CST 5:38 PM CST
Civil Twilight 7:00 AM CST 6:05 PM CST
Nautical Twilight 6:29 AM CST 6:37 PM CST
Astronomical Twilight 5:59 AM CST 7:07 PM CST
Moon 1:02 AM CST (11/19) 1:46 PM CST (11/19)
Length of Visible Light 11h 05m
Length of Day
10h 10m
Last Quarter, 38% of the Moon is Illuminated
Nov 19
Last Quarter
Nov 25
New
Dec 2
First Quarter
Dec 10
Full
Dec 17
Last Quarter

Hourly Weather History & Observations

Time (CST) Temp. Windchill Dew Point Humidity Pressure Visibility Wind Dir Wind Speed Gust Speed Precip Events Conditions
12:15 AM 55.4 °F - 26.6 °F 33% 29.64 in 10.0 mi SW 23.0 mph 28.8 mph N/A   Clear
12:35 AM 53.6 °F - 26.6 °F 35% 29.63 in 10.0 mi SW 23.0 mph - N/A   Clear
12:55 AM 53.6 °F - 26.6 °F 35% 29.63 in 10.0 mi SW 23.0 mph - N/A   Clear
1:15 AM 53.6 °F - 26.6 °F 35% 29.63 in 10.0 mi SW 24.2 mph 27.6 mph N/A   Clear
1:35 AM 53.6 °F - 26.6 °F 35% 29.63 in 10.0 mi SW 20.7 mph - N/A   Clear
1:55 AM 53.6 °F - 26.6 °F 35% 29.63 in 10.0 mi SW 17.3 mph - N/A   Clear
2:15 AM 50.0 °F - 24.8 °F 37% 29.63 in 10.0 mi SSW 16.1 mph - N/A   Clear
2:35 AM 50.0 °F - 24.8 °F 37% 29.63 in 10.0 mi SW 19.6 mph - N/A   Clear
3:15 AM 50.0 °F - 23.0 °F 35% 29.62 in 10.0 mi SW 18.4 mph - N/A   Clear
3:35 AM 51.8 °F - 23.0 °F 33% 29.61 in 10.0 mi SW 21.9 mph 26.5 mph N/A   Clear
3:55 AM 51.8 °F - 23.0 °F 33% 29.62 in 10.0 mi WSW 21.9 mph 28.8 mph N/A   Clear
4:15 AM 51.8 °F - 23.0 °F 33% 29.62 in 10.0 mi SW 23.0 mph - N/A   Clear
4:35 AM 53.6 °F - 21.2 °F 28% 29.62 in 10.0 mi SW 24.2 mph 27.6 mph N/A   Clear
4:55 AM 53.6 °F - 21.2 °F 28% 29.62 in 10.0 mi SW 24.2 mph 29.9 mph N/A   Clear
5:15 AM 53.6 °F - 21.2 °F 28% 29.63 in 10.0 mi SW 24.2 mph 29.9 mph N/A   Clear
5:35 AM 53.6 °F - 21.2 °F 28% 29.64 in 10.0 mi WSW 23.0 mph - N/A   Clear
5:55 AM 53.6 °F - 23.0 °F 30% 29.63 in 10.0 mi SW 24.2 mph - N/A   Clear
6:15 AM 53.6 °F - 23.0 °F 30% 29.64 in 10.0 mi SW 24.2 mph 29.9 mph N/A   Clear
6:35 AM 53.6 °F - 23.0 °F 30% 29.65 in 10.0 mi WSW 21.9 mph 28.8 mph N/A   Clear
6:55 AM 53.6 °F - 23.0 °F 30% 29.65 in 10.0 mi SW 20.7 mph - N/A   Clear
7:15 AM 51.8 °F - 23.0 °F 33% 29.66 in 10.0 mi WSW 23.0 mph - N/A   Clear
7:35 AM 51.8 °F - 23.0 °F 33% 29.66 in 10.0 mi WSW 24.2 mph - N/A   Clear
7:55 AM 51.8 °F - 23.0 °F 33% 29.66 in 10.0 mi WSW 20.7 mph - N/A   Clear
8:15 AM 53.6 °F - 24.8 °F 33% 29.67 in 10.0 mi WSW 21.9 mph 27.6 mph N/A   Clear
8:35 AM 53.6 °F - 26.6 °F 35% 29.68 in 10.0 mi WSW 24.2 mph 28.8 mph N/A   Clear
8:55 AM 55.4 °F - 26.6 °F 33% 29.68 in 10.0 mi SW 27.6 mph 34.5 mph N/A   Clear
9:15 AM 59.0 °F - 26.6 °F 29% 29.69 in 10.0 mi WSW 32.2 mph 38.0 mph N/A   Clear
9:35 AM 59.0 °F - 26.6 °F 29% 29.70 in 10.0 mi WSW 27.6 mph 35.7 mph N/A   Clear
9:55 AM 60.8 °F - 24.8 °F 25% 29.70 in 10.0 mi WSW 32.2 mph 41.4 mph N/A   Clear
10:15 AM 64.4 °F - 24.8 °F 22% 29.71 in 10.0 mi WSW 31.1 mph 39.1 mph N/A   Clear
10:35 AM 64.4 °F - 23.0 °F 21% 29.73 in 10.0 mi WSW 29.9 mph 35.7 mph N/A   Clear
10:55 AM 68.0 °F - 23.0 °F 18% 29.75 in 10.0 mi West 26.5 mph 32.2 mph N/A   Clear
11:15 AM 66.2 °F - 21.2 °F 18% 29.76 in 10.0 mi WSW 24.2 mph 32.2 mph N/A   Clear
11:35 AM 68.0 °F - 21.2 °F 17% 29.76 in 10.0 mi WSW 21.9 mph 27.6 mph N/A   Clear
11:55 AM 68.0 °F - 21.2 °F 17% 29.77 in 10.0 mi WSW 21.9 mph - N/A   Clear
12:15 PM 66.2 °F - 21.2 °F 18% 29.77 in 10.0 mi WSW 20.7 mph 26.5 mph N/A   Clear
12:35 PM 68.0 °F - 21.2 °F 17% 29.76 in 10.0 mi SW 19.6 mph - N/A   Clear
12:55 PM 69.8 °F - 21.2 °F 16% 29.76 in 10.0 mi SW 18.4 mph 25.3 mph N/A   Clear
1:15 PM 69.8 °F - 21.2 °F 16% 29.75 in 10.0 mi SW 17.3 mph 23.0 mph N/A   Clear
1:35 PM 69.8 °F - 19.4 °F 15% 29.74 in 10.0 mi SW 17.3 mph 24.2 mph N/A   Clear
1:55 PM 69.8 °F - 19.4 °F 15% 29.74 in 10.0 mi WSW 16.1 mph 25.3 mph N/A   Clear
2:15 PM 71.6 °F - 19.4 °F 14% 29.74 in 10.0 mi SW 13.8 mph 19.6 mph N/A   Clear
2:35 PM 71.6 °F - 19.4 °F 14% 29.74 in 10.0 mi WSW 16.1 mph - N/A   Clear
3:15 PM 69.8 °F - 19.4 °F 15% 29.75 in 10.0 mi West 4.6 mph - N/A   Clear
3:35 PM 60.8 °F - 24.8 °F 25% 29.76 in 10.0 mi NE 15.0 mph - N/A   Clear
3:55 PM 59.0 °F - 24.8 °F 27% 29.76 in 10.0 mi NE 17.3 mph - N/A   Clear
4:15 PM 59.0 °F - 24.8 °F 27% 29.78 in 10.0 mi NE 15.0 mph - N/A   Clear
4:35 PM 55.4 °F - 24.8 °F 31% 29.79 in 10.0 mi NE 15.0 mph 20.7 mph N/A   Clear
4:55 PM 53.6 °F - 24.8 °F 33% 29.79 in 10.0 mi NE 15.0 mph 20.7 mph N/A   Clear
5:15 PM 51.8 °F - 24.8 °F 35% 29.81 in 10.0 mi NE 15.0 mph 21.9 mph N/A   Clear
5:35 PM 50.0 °F - 26.6 °F 40% 29.82 in 10.0 mi NE 15.0 mph - N/A   Clear
5:55 PM 48.2 °F - 26.6 °F 43% 29.84 in 10.0 mi ENE 12.7 mph - N/A   Clear
6:15 PM 48.2 °F - 26.6 °F 43% 29.84 in 10.0 mi ENE 12.7 mph - N/A   Clear
6:35 PM 46.4 °F 41.1 °F 26.6 °F 46% 29.86 in 10.0 mi ENE 11.5 mph 16.1 mph N/A   Clear
7:15 PM 46.4 °F 40.4 °F 28.4 °F 50% 29.89 in 10.0 mi ENE 13.8 mph 20.7 mph N/A   Clear
7:35 PM 44.6 °F 37.8 °F 28.4 °F 53% 29.91 in 10.0 mi ENE 15.0 mph - N/A   Clear
7:55 PM 44.6 °F 38.8 °F 28.4 °F 53% 29.93 in 10.0 mi ENE 11.5 mph - N/A   Clear
8:15 PM 42.8 °F 36.2 °F 28.4 °F 57% 29.93 in 10.0 mi ENE 12.7 mph - N/A   Clear
8:35 PM 42.8 °F 35.8 °F 30.2 °F 61% 29.94 in 10.0 mi ENE 13.8 mph 19.6 mph N/A   Clear
8:55 PM 42.8 °F 34.8 °F 30.2 °F 61% 29.95 in 10.0 mi ENE 17.3 mph - N/A   Clear
9:15 PM 41.0 °F 32.8 °F 30.2 °F 65% 29.96 in 10.0 mi ENE 16.1 mph - N/A   Clear
9:35 PM 41.0 °F 33.9 °F 28.4 °F 61% 29.97 in 10.0 mi NE 12.7 mph 20.7 mph N/A   Clear
9:55 PM 39.2 °F 31.2 °F 28.4 °F 65% 29.98 in 10.0 mi NE 13.8 mph - N/A   Clear
10:15 PM 37.4 °F 29.3 °F 28.4 °F 70% 29.98 in 10.0 mi NE 12.7 mph 17.3 mph N/A   Clear
10:35 PM 37.4 °F 30.3 °F 28.4 °F 70% 29.99 in 10.0 mi NNE 10.4 mph - N/A   Clear
11:15 PM 35.6 °F 27.5 °F 28.4 °F 75% 30.00 in 10.0 mi NNE 11.5 mph 16.1 mph N/A   Clear
11:35 PM 35.6 °F 27.1 °F 28.4 °F 75% 30.02 in 10.0 mi NNE 12.7 mph - N/A   Clear
11:55 PM 35.6 °F 27.1 °F 28.4 °F 75% 30.02 in 10.0 mi NNE 12.7 mph - N/A   Clear